Weather Roundup
Issued by NWS

Home | Current Version | Previous Version | Graphics & Text | Print | Product List | Glossary Off
Versions: 1 2 3 4 5 6 7 8 9 10 11 12 13 14 15 16 17 18 19 20 21 22 23 24 25 26 27 28 29 30 31 32 33 34 35 36 37 38 39 40 41 42 43 44 45 46 47 48 49 50

629
NZUS93 KARX 171310
HRRWXR

CURRENT HOURLY OBSERVATIONS ACROSS
MUCH OF THE UPPER MISSISSIPPI VALLEY
NATIONAL WEATHER SERVICE LA CROSSE WI
800 AM CDT TUE OCT 17 2017


...SOUTHEAST MINNESOTA...


CITY           SKY/WX    TMP DP  RH WIND       PRES   REMARKS
ROCHESTER      CLEAR     44  40  85 CALM      30.05R
ROCHESTER/MAYO FAIR      49  40  71 CALM      30.05R
WINONA         CLEAR     46  43  87 CALM      30.05S
AUSTIN         CLEAR     45  39  81 S5        30.05R
ALBERT LEA     CLEAR     50  43  76 SW7       30.05R
DODGE CENTER   CLEAR     45  39  81 SW7       30.04R
PRESTON        CLEAR     44  38  80 S5        30.06R
OWATONNA       CLEAR     45  39  81 S5        30.03S
FARIBAULT      CLEAR     45  39  81 S5        30.02F
$$

...ELSEWHERE IN MINNESOTA...


CITY           SKY/WX    TMP DP  RH WIND       PRES   REMARKS
MINNEAPOLIS    PTCLDY    48  41  76 CALM      30.01S
INTNL FALLS    PTCLDY    31  28  89 CALM      29.91R
DULUTH         CLOUDY    44  38  79 NW3       29.96R
RED WING       CLOUDY    41  37  87 CALM      30.02S
REDWOOD FALLS  CLOUDY    42  36  79 CALM      30.01S
MANKATO        CLEAR     42  39  89 S5        30.02F
WORTHINGTON    CLEAR     46  38  73 SW8       30.04S
FAIRMONT       CLEAR     44  39  82 CALM      30.04
$$

...SOUTHWEST WISCONSIN...


CITY           SKY/WX    TMP DP  RH WIND       PRES   REMARKS
LA CROSSE      CLEAR     50  43  77 S7        30.05S
PRAIRIE DU CHI CLEAR     51  40  65 SW5       30.10R
BOSCOBEL       CLEAR     45  41  86 W3        30.11R
LONE ROCK      CLEAR     45  41  86 SW3       30.10R
PLATTEVILLE    CLEAR     49  42  77 SW8       30.13R
FORT MC COY    CLEAR     38  37  97 CALM      30.06S
MAUSTON-NEW LI SUNNY     51  41  67 CALM      30.05R
VIROQUA        FAIR      47  42  82 CALM      30.07S
WIS DELLS      CLEAR     50  39  66 SW10      30.07S
$$

...ELSEWHERE IN WISCONSIN...


CITY           SKY/WX    TMP DP  RH WIND       PRES   REMARKS
MILWAUKEE      PTCLDY    53  40  61 SW14      30.11R
MADISON        PTCLDY    53  40  61 SW8G17    30.10R
GREEN BAY      CLEAR     48  42  80 SW5       30.03R
EAU CLAIRE     CLOUDY    39  39 100 CALM      30.02R
BLACK RVR FLS  FAIR      37  37 100 S3        30.03S
MEDFORD        CLOUDY    39  35  86 CALM      30.01S
WAUSAU         CLOUDY    43  38  82 CALM      30.02R
WIS RAPIDS     CLEAR     47  41  80 SW6       30.05R
MARSHFIELD     CLEAR     45  37  73 W3        30.02R
RICE LAKE      CLOUDY    35  35  99 CALM      30.03S
$$

...NORTHEAST IOWA...


CITY           SKY/WX    TMP DP  RH WIND       PRES   REMARKS
WATERLOO       CLEAR     49  40  71 SW7       30.10R
DUBUQUE        CLEAR     46  40  79 SW10      30.13R
DECORAH        CLEAR     48  41  76 VRB5      30.07S
MASON CITY     CLEAR     49  40  71 SW12      30.08R
CHARLES CITY   CLEAR     43  41  93 S6        30.08S
OELWEIN        CLEAR     43  43 100 S8        30.11S
$$

...ELSEWHERE IN IOWA...


CITY           SKY/WX    TMP DP  RH WIND       PRES   REMARKS
DES MOINES     PTCLDY    51  40  65 S10       30.12F
IOWA CITY      CLEAR     48  40  73 S3        30.18S
FORT DODGE     CLEAR     46  40  79 S7        30.08S
MARSHALLTOWN   CLEAR     49  41  74 S8        30.11F
CEDAR RAPIDS   CLEAR     49  41  74 S10       30.14S
$$

...NORTHERN ILLINOIS...


CITY           SKY/WX    TMP DP  RH WIND       PRES   REMARKS
CHICAGO-OHARE  PTCLDY    52  39  61 SW13      30.19R
CHICAGO-MIDWAY PTCLDY    50  40  68 SW14G22   30.21S
MOLINE         CLEAR     50  40  68 SW9       30.19S
ROCKFORD       PTCLDY    49  40  71 S5        30.19R
PEORIA         CLEAR     45  42  89 S6        30.26S
$$

NOTE: "FAIR" INDICATES FEW OR NO CLOUDS BELOW 12,000 FEET WITH NO
SIGNIFICANT WEATHER AND/OR OBSTRUCTIONS TO VISIBILITY. WIND
SPEEDS ARE IN MILES-PER-HOUR.




USA.gov is the U.S. government's official web portal to all federal, state and local government web resources and services.